sat.trackr.live / text

‹ back to catalog

STARLINK-1221

NORAD 45227 · 2020-012BB

PAYLOAD ACTIVE UNKNOWN

§ Identity

Operator
Country
US
Launch date
2020-02-17
Launch site
AFETR
Launch vehicle
Mass (kg)
RCS (m²)

Purposes: comms

External: N2YO · Heavens-Above · Gunter

§ Orbital elements

Epoch: 2026-05-24T17:57:17.841888Z

Period
93.24 min
Inclination
53.0649°
Eccentricity
0.0001798
Mean motion
15.44319163 rev/d
Perigee alt
432.2 km
Apogee alt
434.6 km
Semi-major
6,811.5 km
B*
3.1100e-4
RAAN
268.4835°
Arg perigee
237.7758°
Mean anomaly
122.3074°
Rev number
34,845

§ Raw data

STARLINK-12211 45227U 20012BB  26144.74812317  .00014161  00000+0  31100-3 0  99952 45227  53.0649 268.4835 0001798 237.7758 122.3074 15.44319163348459

JSON: /api/v1/satellites/45227 · /tle

For live sub-satellite position, see the globe view (requires WebGL).

§ Visibility from observer

Set your observer location to see the next 7 days of passes ≥ 10°. The values pass through the URL so the page stays shareable.

No JS? Fill the form by hand. The geolocation button needs JavaScript.